ECHOSTAR 21 (42749 NORAD) Tracking and Keplerian Element Data

This shows tracking and keplerian element data for the satellite.

Feedback or suggestion? Click here.




ElementValue
Catalog42749
NameECHOSTAR 21
Epoch Orbit1582
Epoch Day269.83717602
Epoch Year2021
RAAN311.1518
Inclination4.543
Eccentricity0.0002207
Argument of Perigee236.1882
Mean Anonmoly130.1652
Mean Motion1.00274519
Decay Rate6.3E-07
L11 42749U 17032A 21269.83717602 .00000063 00000-0 00000-0 0 9992
L22 42749 4.5430 311.1518 0002207 236.1882 130.1652 1.00274519 15828

Live tracking and technical data element details for ECHOSTAR 21 (NORAD 42749). ECHOSTAR 21 can be tracked NOW for your location showing map with azimuth and elevation plus other details from your city location.

Track the satellite on the map from your city or location and see movement details for azimuth, elevation, latitude, longitude, range, height, and movement on the map or in text.







IsCatalogInMostPopularTable: catalog: 42749, numindb: 564
Update: records affected: 1



GetName: 42749 ECHOSTAR 21

Hit Count: updated at: Tue, 28 Sep 2021 16:08:27 GMT